[[{"header":{"parameterUnit":"m.s-1","parameterCategory":1,"la1":30.2991,"la2":30.254,"lo1":-89.0895,"lo2":-89.0444,"dy":0.0017,"dx":0.0017,"nx":28,"ny":28,"refTime":"2023-09-02T21:00:00:Z","depth":0,"parameterNumber":2,"parameterNumberName":"U-component_of_WINDS"},"data":[0,0,0,0,0,0,0,0,0,0,0,0,0,0,0,0,0,0,0,0,0,0,0,0,0,0,0,0,0,0,0,0,0,0,0,0,0,0,0,0,0,0,0,0,0,0,0,0,0,0,0,0,0,0,0,0,0,0,-5.5436,-5.5435,0,-5.5275,-5.5273,-5.5271,-5.5081,-5.5078,-5.5075,-5.5072,-5.4899,-5.4898,-5.4896,0,0,0,0,0,0,0,0,0,0,0,0,0,-5.5576,-5.5574,-5.5437,-5.5435,-5.5433,-5.5275,-5.5273,-5.5271,-5.5081,-5.5078,-5.5074,-5.5071,-5.49,-5.4898,-5.4896,0,0,0,0,0,0,0,0,0,0,0,0,0,-5.5475,-5.5574,-5.5437,-5.5319,-5.5307,-5.5276,-5.5273,-5.527,-5.5082,-5.5077,-5.5073,-5.5069,-5.4901,-5.4898,-5.4895,-5.4964,0,0,-5.4887,-5.4885,0,0,0,0,0,0,0,0,-5.5481,-5.547,-5.5339,-5.5327,-5.5314,-5.5194,-5.5258,-5.5167,-5.5083,-5.5167,-5.5072,-5.5067,-5.5,-5.4989,-5.4968,-5.4956,-5.4949,-5.4886,-5.4885,-5.4883,-5.4883,0,0,0,0,0,0,0,-5.5488,-5.5476,-5.5372,-5.5337,-5.5322,-5.5273,-5.5253,-5.524,-5.511,-5.5159,-5.5145,-5.5129,-5.4993,-5.4971,-5.4963,-5.4946,-5.4886,-5.4884,-5.4882,-5.4881,-5.4982,-5.4986,0,0,0,0,0,0,-5.5514,-5.5483,-5.5377,-5.5367,-5.5389,-5.5274,-5.5252,-5.5236,-5.5109,-5.5086,-5.5133,-5.5121,-5.4978,-5.4966,-5.4956,-5.5027,-5.4883,-5.4881,-5.4879,-5.4978,-5.4983,-5.4988,0,0,0,0,0,0,-5.5517,-5.5506,-5.5384,-5.5421,-5.5402,-5.5276,-5.526,-5.5235,-5.5214,-5.509,-5.5065,-5.5135,-5.4974,-5.496,-5.4964,-5.5018,-5.4879,-5.4877,-5.4972,-5.4979,-5.4985,-5.5172,0,0,0,0,0,0,-5.5522,-5.5509,-5.5535,-5.5423,-5.5401,-5.5397,-5.5263,-5.5235,-5.521,-5.5193,-5.5085,-5.5063,-5.497,-5.4969,-5.4961,-5.5012,-5.4875,-5.4967,-5.4975,-5.4983,-5.516,-5.5184,-5.5204,0,0,0,0,0,-5.5528,-5.5592,-5.5537,-5.5525,-5.5431,-5.5401,-5.5388,-5.5281,-5.5216,-5.524,-5.516,-5.5067,-5.5015,-5.4971,-5.496,-5.5011,-5.4963,-5.4973,-5.4983,-5.515,-5.5179,-5.5204,0,0,0,0,0,0,-5.5711,-5.5576,-5.5513,-5.5544,-5.5486,-5.5369,-5.5396,-5.5315,-5.5272,-5.5258,-5.5125,-5.5102,-5.5122,-5.5067,-5.5021,-5.5071,-5.4975,-5.4983,-5.5106,-5.5133,-5.5154,-5.5166,-5.4872,0,0,0,0,0,-5.5756,-5.5744,-5.5625,-5.5664,-5.5638,-5.5524,-5.5506,-5.5429,-5.5362,-5.5336,-5.5256,-5.5194,-5.5162,-5.5145,-5.511,-5.5152,-5.5125,-5.5182,-5.5204,-5.5223,-5.523,-5.5247,-5.5271,-5.502,-5.502,-5.502,0,0,-5.5846,-5.5771,-5.5771,-5.5699,-5.5645,-5.5634,-5.5503,-5.5497,-5.5487,-5.5334,-5.5333,-5.5274,-5.5194,-5.5218,-5.5224,-5.5173,-5.5294,-5.5235,-5.5251,-5.5248,-5.526,-5.5284,-5.5305,-5.5027,-5.5026,-5.5025,0,0,-5.6005,-5.5948,-5.5973,-5.5923,-5.5843,-5.5767,-5.5774,-5.5669,-5.5624,-5.5622,-5.5507,-5.5492,-5.5443,-5.5391,-5.5358,-5.55,-5.5412,-5.5492,-5.5606,-5.5625,-5.5644,-5.5661,-5.571,-5.5729,-5.5501,-5.5502,-5.5502,0,-5.6127,-5.6107,-5.5996,-5.5998,-5.5969,-5.5833,-5.5857,-5.5812,-5.5725,-5.5707,-5.5652,-5.5587,-5.5524,-5.5533,-5.5568,-5.5547,-5.5548,-5.5502,-5.5651,-5.5667,-5.5681,-5.5725,-5.5744,-5.5512,-5.5511,-5.551,-5.5509,0,-5.626,-5.6249,-5.6279,-5.6201,-5.6175,-5.6188,-5.6077,-5.6064,-5.5991,-5.592,-5.5919,-5.5839,-5.5785,-5.5782,-5.5709,-5.5781,-5.5751,-5.5676,-5.5576,-5.5717,-5.5756,-5.5773,-5.5526,-5.5523,-5.552,-5.5517,0,0,-5.6527,-5.6389,-5.6402,-5.6364,-5.6268,-5.6256,-5.6263,-5.6212,-5.6203,-5.6149,-5.6149,-5.6111,-5.6041,-5.6004,-5.5924,-5.594,-5.6056,-5.5861,-5.5858,-5.5899,-5.6128,-5.6184,-5.6206,-5.5999,-5.6001,-5.6004,-5.6134,0,-5.6667,-5.6671,-5.6572,-5.6603,-5.659,-5.6462,-5.6467,-5.6408,-5.6343,-5.632,-5.6246,-5.6221,-5.6131,-5.6108,-5.6119,-5.604,-5.61,-5.603,-5.5994,-5.5995,-5.6016,-5.6227,-5.6286,-5.6413,-5.6149,-5.6152,-5.6154,0,-5.6829,-5.6786,-5.6817,-5.672,-5.671,-5.6717,-5.6663,-5.6645,-5.6575,-5.6525,-5.6486,-5.6396,-5.6393,-5.6302,-5.6295,-5.6249,-5.6229,-5.6189,-5.6191,-5.6181,-5.6081,-5.6221,-5.6451,-5.6469,-5.6177,-5.6175,-5.6174,0,-5.7019,-5.6968,-5.6979,-5.6952,-5.6839,-5.6847,-5.68,-5.6726,-5.6702,-5.6655,-5.6638,-5.659,-5.6564,-5.6528,-5.6427,-5.637,-5.6431,-5.6331,-5.6388,-5.639,-5.6403,-5.6404,-5.6632,-5.6396,-5.6396,-5.6396,-5.6395,0,-5.7183,-5.7206,-5.7063,-5.707,-5.7092,-5.6978,-5.7002,-5.6942,-5.6878,-5.6869,-5.6756,-5.675,-5.6618,-5.6597,-5.6517,-5.6523,-5.6512,-5.647,-5.6448,-5.6479,-5.6484,-5.6462,-5.6449,-5.6401,-5.6399,-5.6399,-5.6398,0,-5.7397,-5.7302,-5.7306,-5.72,-5.7174,-5.7195,-5.7103,-5.7104,-5.7033,-5.7023,-5.7014,-5.6901,-5.687,-5.6767,-5.671,-5.6656,-5.6685,-5.6645,-5.671,-5.6695,-5.6757,-5.6752,-5.6976,-5.6998,-5.6753,-5.6755,-5.6757,0,-5.7506,-5.7522,-5.7419,-5.7406,-5.7365,-5.7346,-5.7322,-5.721,-5.719,-5.7112,-5.7122,-5.7083,-5.7045,-5.7002,-5.6913,-5.6868,-5.6824,-5.6906,-5.6816,-5.6847,-5.6823,-5.6822,-5.6822,-5.6925,-5.6928,-5.6931,-5.6933,0,-5.7711,-5.7664,-5.7635,-5.759,-5.7566,-5.7524,-5.7476,-5.7472,-5.7347,-5.7329,-5.7298,-5.727,-5.7213,-5.7174,-5.7116,-5.7064,-5.6977,-5.6963,-5.6973,-5.7002,-5.7038,-5.7018,-5.676,-5.6957,-5.6954,-5.6953,-5.6951,-5.695,-5.7874,-5.7881,-5.781,-5.7781,-5.7734,-5.7693,-5.7688,-5.7618,-5.759,-5.7537,-5.7472,-5.7449,-5.7377,-5.729,-5.7246,-5.7224,-5.7177,-5.7192,-5.7195,-5.72,-5.7214,-5.7045,-5.7213,-5.7213,-5.7212,-5.7211,-5.721,0,-5.807,-5.8019,-5.7994,-5.7932,-5.7909,-5.7834,-5.7776,-5.7762,-5.7743,-5.7686,-5.7652,-5.7615,-5.7578,-5.7488,-5.7442,-5.7441,-5.74,-5.7433,-5.743,-5.7419,-5.726,-5.7255,-5.7467,-5.7467,-5.7467,-5.7467,-5.7467,-5.7466,-5.817,-5.8178,-5.8123,-5.8106,-5.8054,-5.8031,-5.8005,-5.7966,-5.7919,-5.7884,-5.7854,-5.7797,-5.7725,-5.7673,-5.7635,-5.7609,-5.7596,-5.7641,-5.7602,-5.7455,-5.743,-5.7407,-5.7401,-5.764,-5.764,-5.7762,-5.7763,-5.7764]},{"header":{"parameterUnit":"m.s-1","parameterCategory":1,"la1":30.2991,"la2":30.254,"lo1":-89.0895,"lo2":-89.0444,"dy":0.0017,"dx":0.0017,"nx":28,"ny":28,"refTime":"2023-09-02T21:00:00:Z","depth":0,"parameterNumber":3,"parameterNumberName":"V-component_of_WINDS"},"data":[0,0,0,0,0,0,0,0,0,0,0,0,0,0,0,0,0,0,0,0,0,0,0,0,0,0,0,0,0,0,0,0,0,0,0,0,0,0,0,0,0,0,0,0,0,0,0,0,0,0,0,0,0,0,0,0,0,0,-1.4464,-1.4464,0,-1.4492,-1.4492,-1.4492,-1.4419,-1.4417,-1.4415,-1.4412,-1.4445,-1.4448,-1.4451,0,0,0,0,0,0,0,0,0,0,0,0,0,-1.4349,-1.4352,-1.4464,-1.4464,-1.4465,-1.4492,-1.4492,-1.4493,-1.442,-1.4417,-1.4414,-1.4411,-1.4444,-1.4448,-1.4451,0,0,0,0,0,0,0,0,0,0,0,0,0,-1.4391,-1.4353,-1.4464,-1.4431,-1.4429,-1.4492,-1.4492,-1.4493,-1.442,-1.4417,-1.4413,-1.441,-1.4443,-1.4447,-1.4452,-1.4549,0,0,-1.4466,-1.4468,0,0,0,0,0,0,0,0,-1.4388,-1.4395,-1.4436,-1.4434,-1.4431,-1.4448,-1.4464,-1.4512,-1.4421,-1.4424,-1.4412,-1.4408,-1.4449,-1.4453,-1.4466,-1.4551,-1.4552,-1.4466,-1.4469,-1.4471,-1.4472,0,0,0,0,0,0,0,-1.4386,-1.4393,-1.4475,-1.4437,-1.4434,-1.4416,-1.4418,-1.4472,-1.4456,-1.4423,-1.4418,-1.4422,-1.4447,-1.4462,-1.4466,-1.4552,-1.4466,-1.447,-1.4473,-1.4475,-1.4715,-1.4718,0,0,0,0,0,0,-1.4386,-1.4391,-1.4474,-1.4476,-1.4401,-1.4421,-1.4423,-1.4446,-1.4455,-1.4453,-1.4425,-1.4418,-1.4456,-1.4461,-1.4467,-1.4579,-1.4471,-1.4475,-1.4478,-1.4711,-1.4715,-1.4719,0,0,0,0,0,0,-1.4384,-1.4395,-1.4473,-1.4432,-1.4441,-1.4426,-1.4453,-1.4449,-1.4463,-1.4456,-1.4453,-1.4443,-1.4453,-1.4461,-1.4528,-1.458,-1.4477,-1.4481,-1.4707,-1.4712,-1.4717,-1.4806,0,0,0,0,0,0,-1.4381,-1.4394,-1.4431,-1.4434,-1.4443,-1.4534,-1.4456,-1.4452,-1.4471,-1.4462,-1.4472,-1.447,-1.4451,-1.4522,-1.4533,-1.4584,-1.4485,-1.4702,-1.4709,-1.4716,-1.4799,-1.4814,-1.4827,0,0,0,0,0,-1.4378,-1.4457,-1.4433,-1.4444,-1.4489,-1.4537,-1.4542,-1.4518,-1.4475,-1.4512,-1.4506,-1.447,-1.4572,-1.4529,-1.4541,-1.4595,-1.4699,-1.4707,-1.4715,-1.4792,-1.4811,-1.4827,0,0,0,0,0,0,-1.4463,-1.4457,-1.4431,-1.4513,-1.4525,-1.4524,-1.457,-1.4539,-1.4565,-1.4557,-1.4526,-1.4529,-1.4602,-1.4605,-1.4557,-1.4687,-1.4628,-1.4639,-1.4683,-1.4701,-1.4715,-1.4713,-1.4489,0,0,0,0,0,-1.4491,-1.453,-1.4522,-1.4595,-1.4603,-1.4585,-1.4606,-1.4585,-1.4597,-1.4603,-1.4603,-1.4618,-1.4652,-1.4677,-1.4709,-1.4798,-1.4798,-1.484,-1.4855,-1.4866,-1.4877,-1.4922,-1.494,-1.4746,-1.4746,-1.4746,0,0,-1.4551,-1.4552,-1.4578,-1.4613,-1.462,-1.4661,-1.4591,-1.4638,-1.4668,-1.4611,-1.4673,-1.4674,-1.4688,-1.4766,-1.48,-1.4771,-1.493,-1.4877,-1.4886,-1.489,-1.4932,-1.495,-1.4967,-1.4752,-1.4751,-1.475,0,0,-1.4679,-1.4684,-1.4744,-1.4752,-1.4763,-1.475,-1.4765,-1.4767,-1.4764,-1.4826,-1.4783,-1.4819,-1.4881,-1.4891,-1.4905,-1.5033,-1.5,-1.5045,-1.512,-1.5164,-1.5179,-1.5193,-1.5237,-1.5254,-1.5055,-1.5055,-1.5055,0,-1.4752,-1.4811,-1.478,-1.4828,-1.4844,-1.4791,-1.4851,-1.4861,-1.4883,-1.4895,-1.4861,-1.4935,-1.4941,-1.5019,-1.505,-1.5064,-1.5079,-1.5044,-1.5179,-1.5192,-1.5204,-1.5247,-1.5263,-1.506,-1.5059,-1.5059,-1.5058,0,-1.4899,-1.494,-1.4987,-1.5007,-1.5027,-1.5082,-1.5059,-1.5084,-1.506,-1.5051,-1.5114,-1.5118,-1.5149,-1.5166,-1.5145,-1.5241,-1.5222,-1.5184,-1.5124,-1.5229,-1.5268,-1.5284,-1.5068,-1.5066,-1.5064,-1.5063,0,0,-1.5086,-1.5083,-1.5102,-1.5108,-1.5114,-1.5146,-1.5197,-1.5225,-1.5246,-1.5262,-1.5304,-1.5355,-1.5319,-1.5334,-1.5314,-1.5352,-1.5451,-1.5309,-1.5309,-1.5335,-1.5556,-1.5584,-1.5603,-1.5429,-1.5432,-1.5434,-1.5554,0,-1.5212,-1.5298,-1.5269,-1.5357,-1.5393,-1.5341,-1.5386,-1.5394,-1.5386,-1.5416,-1.5408,-1.5444,-1.5394,-1.5403,-1.5439,-1.5432,-1.5495,-1.5423,-1.5468,-1.547,-1.5465,-1.5624,-1.5655,-1.5768,-1.5569,-1.5572,-1.5574,0,-1.5371,-1.539,-1.548,-1.5476,-1.5491,-1.5531,-1.5552,-1.5582,-1.559,-1.5581,-1.5596,-1.5566,-1.5616,-1.5554,-1.5622,-1.5573,-1.5589,-1.5588,-1.5592,-1.5596,-1.5528,-1.5631,-1.5803,-1.582,-1.5598,-1.5596,-1.5594,0,-1.5497,-1.5545,-1.5604,-1.5611,-1.5609,-1.5638,-1.5639,-1.5643,-1.5661,-1.5679,-1.569,-1.5716,-1.573,-1.575,-1.5727,-1.5685,-1.5797,-1.5735,-1.5791,-1.5792,-1.5818,-1.5817,-1.5995,-1.5829,-1.5829,-1.5829,-1.5828,0,-1.564,-1.5698,-1.566,-1.5697,-1.5758,-1.5724,-1.5786,-1.5782,-1.5785,-1.582,-1.5777,-1.5811,-1.5779,-1.5809,-1.5792,-1.5849,-1.5857,-1.5851,-1.5845,-1.5854,-1.5855,-1.5865,-1.5857,-1.5833,-1.5832,-1.5831,-1.5831,0,-1.5792,-1.5769,-1.583,-1.5821,-1.582,-1.5866,-1.5859,-1.5892,-1.5879,-1.5924,-1.5932,-1.5912,-1.5946,-1.5924,-1.596,-1.5947,-1.6022,-1.6006,-1.6019,-1.6015,-1.6072,-1.6066,-1.6263,-1.6286,-1.6106,-1.6107,-1.6109,0,-1.5886,-1.5928,-1.5922,-1.5941,-1.5943,-1.5975,-1.5991,-1.5958,-1.5977,-1.5987,-1.6019,-1.6048,-1.607,-1.6126,-1.6115,-1.6141,-1.6125,-1.6192,-1.6129,-1.6136,-1.6125,-1.6123,-1.6126,-1.6205,-1.6207,-1.6209,-1.621,0,-1.6054,-1.6039,-1.6063,-1.6082,-1.6102,-1.6116,-1.6127,-1.6145,-1.6112,-1.6135,-1.6167,-1.6183,-1.6216,-1.6246,-1.6266,-1.6267,-1.6234,-1.623,-1.6244,-1.6254,-1.6259,-1.6256,-1.6053,-1.6226,-1.6224,-1.6223,-1.6222,-1.6222,-1.6179,-1.6212,-1.6212,-1.624,-1.6243,-1.6253,-1.6283,-1.6272,-1.6298,-1.632,-1.63,-1.6338,-1.6342,-1.6365,-1.637,-1.64,-1.6373,-1.6394,-1.6399,-1.6405,-1.6412,-1.6254,-1.6404,-1.6403,-1.6403,-1.6402,-1.6402,0,-1.6344,-1.634,-1.6365,-1.6379,-1.64,-1.6363,-1.6372,-1.6393,-1.6426,-1.6431,-1.6452,-1.6488,-1.6515,-1.6505,-1.6528,-1.6554,-1.6539,-1.6561,-1.6559,-1.656,-1.6436,-1.642,-1.6573,-1.6573,-1.6573,-1.6573,-1.6573,-1.6573,-1.6432,-1.6486,-1.6471,-1.6525,-1.6521,-1.6556,-1.6564,-1.6573,-1.6577,-1.6617,-1.6638,-1.663,-1.6629,-1.6652,-1.6675,-1.6671,-1.6682,-1.671,-1.6701,-1.6585,-1.6569,-1.6553,-1.6538,-1.6713,-1.6713,-1.6822,-1.6823,-1.6824]}]]